Time,TemperatureF,DewpointF,PressureIn,WindDirection,WindDirectionDegrees,WindSpeedMPH,WindSpeedGustMPH,Humidity,HourlyPrecipIn,Conditions,Clouds,dailyrainin,SoftwareType,DateUTC
2013-04-30 00:01:00,53.2,28.3,30.27,SSE,168,1.0,5.0,38,0.00,,OVC080,0.00,VWS V14.00,2013-04-30 04:01:00,
2013-04-30 00:02:00,53.2,28.3,30.26,SSE,168,2.0,2.0,38,0.00,,OVC080,0.00,VWS V14.00,2013-04-30 04:02:00,
2013-04-30 00:07:00,53.1,28.8,30.26,SSE,168,2.0,4.0,39,0.00,,OVC080,0.00,VWS V14.00,2013-04-30 04:07:00,
2013-04-30 00:12:00,53.1,28.2,30.26,SSE,168,0.0,4.0,38,0.00,,OVC080,0.00,VWS V14.00,2013-04-30 04:12:00,
2013-04-30 00:17:00,53.0,28.7,30.26,SSE,168,1.0,4.0,39,0.00,,OVC080,0.00,VWS V14.00,2013-04-30 04:17:00,
2013-04-30 00:22:00,52.8,28.5,30.26,SSE,168,2.0,4.0,39,0.00,,OVC080,0.00,VWS V14.00,2013-04-30 04:22:00,
2013-04-30 00:27:00,52.8,28.5,30.26,SSE,168,0.0,4.0,39,0.00,,OVC080,0.00,VWS V14.00,2013-04-30 04:27:00,
2013-04-30 00:32:00,52.8,28.5,30.26,SSE,168,0.0,2.0,39,0.00,,OVC080,0.00,VWS V14.00,2013-04-30 04:32:00,
2013-04-30 00:37:00,52.6,29.0,30.26,SSE,168,2.0,2.0,40,0.00,,OVC080,0.00,VWS V14.00,2013-04-30 04:37:00,
2013-04-30 00:42:00,52.6,29.0,30.26,SSE,168,1.0,2.0,40,0.00,,OVC080,0.00,VWS V14.00,2013-04-30 04:42:00,
2013-04-30 00:47:00,52.7,29.1,30.26,SSE,168,2.0,2.0,40,0.00,,OVC080,0.00,VWS V14.00,2013-04-30 04:47:00,
2013-04-30 00:52:00,52.5,28.9,30.26,SSE,168,0.0,2.0,40,0.00,,OVC080,0.00,VWS V14.00,2013-04-30 04:52:00,
2013-04-30 00:57:00,52.3,29.3,30.26,SSE,168,2.0,3.0,41,0.00,,OVC080,0.00,VWS V14.00,2013-04-30 04:57:00,
2013-04-30 01:02:00,52.4,28.8,30.26,SSE,168,1.0,3.0,40,0.00,,OVC080,0.00,VWS V14.00,2013-04-30 05:02:00,
2013-04-30 01:07:00,52.2,28.6,30.26,SSE,168,1.0,3.0,40,0.00,,OVC080,0.00,VWS V14.00,2013-04-30 05:07:00,
2013-04-30 01:12:00,52.2,28.6,30.26,SSE,168,1.0,3.0,40,0.00,,OVC080,0.00,VWS V14.00,2013-04-30 05:12:00,
2013-04-30 01:17:00,52.1,29.1,30.26,SSE,168,2.0,3.0,41,0.00,,OVC080,0.00,VWS V14.00,2013-04-30 05:17:00,
2013-04-30 01:22:00,52.1,29.1,30.26,SSE,168,0.0,3.0,41,0.00,,OVC080,0.00,VWS V14.00,2013-04-30 05:22:00,
2013-04-30 01:27:00,51.9,29.5,30.26,SSE,168,0.0,3.0,42,0.00,,OVC080,0.00,VWS V14.00,2013-04-30 05:27:00,
2013-04-30 01:32:00,51.9,29.5,30.26,SSE,168,1.0,2.0,42,0.00,,OVC080,0.00,VWS V14.00,2013-04-30 05:32:00,
2013-04-30 01:37:00,51.8,30.0,30.26,SSE,168,1.0,2.0,43,0.00,,OVC080,0.00,VWS V14.00,2013-04-30 05:37:00,
2013-04-30 01:42:00,51.6,29.9,30.26,SSE,168,1.0,3.0,43,0.00,,OVC080,0.00,VWS V14.00,2013-04-30 05:42:00,
2013-04-30 01:47:00,51.6,30.4,30.26,SSE,168,1.0,3.0,44,0.00,,OVC080,0.00,VWS V14.00,2013-04-30 05:47:00,
2013-04-30 01:52:00,51.5,30.3,30.26,SSE,168,0.0,3.0,44,0.00,,OVC080,0.00,VWS V14.00,2013-04-30 05:52:00,
2013-04-30 01:57:00,51.3,30.1,30.26,SSE,168,1.0,3.0,44,0.00,,OVC080,0.00,VWS V14.00,2013-04-30 05:57:00,
2013-04-30 02:02:00,51.2,30.6,30.26,SSE,168,0.0,3.0,45,0.00,,OVC080,0.00,VWS V14.00,2013-04-30 06:02:00,
2013-04-30 02:07:00,51.0,30.4,30.25,SSE,168,1.0,3.0,45,0.00,,OVC080,0.00,VWS V14.00,2013-04-30 06:07:00,
2013-04-30 02:12:00,50.9,30.3,30.26,SSE,168,2.0,3.0,45,0.00,,OVC080,0.00,VWS V14.00,2013-04-30 06:12:00,
2013-04-30 02:17:00,50.6,30.6,30.26,SSE,168,1.0,3.0,46,0.00,,OVC080,0.00,VWS V14.00,2013-04-30 06:17:00,
2013-04-30 02:22:00,50.4,31.0,30.26,SSE,168,0.0,3.0,47,0.00,,OVC080,0.00,VWS V14.00,2013-04-30 06:22:00,
2013-04-30 02:27:00,50.3,30.9,30.25,SSE,168,1.0,3.0,47,0.00,,OVC080,0.00,VWS V14.00,2013-04-30 06:27:00,
2013-04-30 02:32:00,50.1,31.2,30.25,SSE,168,1.0,2.0,48,0.00,,OVC080,0.00,VWS V14.00,2013-04-30 06:32:00,
2013-04-30 02:41:00,49.4,31.6,30.26,SSE,168,0.0,2.0,50,0.00,,OVC080,0.00,VWS V14.00,2013-04-30 06:41:00,
2013-04-30 02:46:00,49.1,31.8,30.26,SSE,168,1.0,2.0,51,0.00,,OVC080,0.00,VWS V14.00,2013-04-30 06:46:00,
2013-04-30 02:51:00,48.7,31.4,30.26,SSE,168,1.0,2.0,51,0.00,,OVC080,0.00,VWS V14.00,2013-04-30 06:51:00,
2013-04-30 02:56:00,48.2,30.9,30.26,SSE,168,1.0,2.0,51,0.00,,OVC080,0.00,VWS V14.00,2013-04-30 06:56:00,
2013-04-30 03:01:00,47.8,31.0,30.26,SSE,168,1.0,2.0,52,0.00,,BKN090,0.00,VWS V14.00,2013-04-30 07:01:00,
2013-04-30 03:06:00,47.4,32.1,30.26,SSE,168,0.0,2.0,55,0.00,,BKN090,0.00,VWS V14.00,2013-04-30 07:06:00,
2013-04-30 03:11:00,47.2,32.3,30.26,SSE,168,1.0,2.0,56,0.00,,BKN090,0.00,VWS V14.00,2013-04-30 07:11:00,
2013-04-30 03:16:00,46.9,31.1,30.26,SSE,168,0.0,2.0,54,0.00,,BKN090,0.00,VWS V14.00,2013-04-30 07:16:00,
2013-04-30 03:22:00,46.6,31.3,30.26,SSE,168,1.0,3.0,55,0.00,,BKN090,0.00,VWS V14.00,2013-04-30 07:22:00,
2013-04-30 03:27:00,46.5,31.2,30.26,SSE,168,1.0,1.0,55,0.00,,BKN090,0.00,VWS V14.00,2013-04-30 07:27:00,
2013-04-30 03:32:00,46.3,31.5,30.26,SSE,168,1.0,2.0,56,0.00,,BKN090,0.00,VWS V14.00,2013-04-30 07:32:00,
2013-04-30 03:37:00,46.2,31.4,30.26,SSE,168,1.0,2.0,56,0.00,,BKN090,0.00,VWS V14.00,2013-04-30 07:37:00,
2013-04-30 03:42:00,46.1,31.3,30.26,SSE,168,1.0,2.0,56,0.00,,BKN090,0.00,VWS V14.00,2013-04-30 07:42:00,
2013-04-30 03:47:00,45.9,32.0,30.26,SSE,168,1.0,2.0,58,0.00,,BKN090,0.00,VWS V14.00,2013-04-30 07:47:00,
2013-04-30 03:52:00,45.8,32.3,30.26,SSE,168,1.0,3.0,59,0.00,,BKN090,0.00,VWS V14.00,2013-04-30 07:52:00,
2013-04-30 03:57:00,45.6,31.3,30.26,SSE,168,1.0,3.0,57,0.00,,BKN090,0.00,VWS V14.00,2013-04-30 07:57:00,
2013-04-30 04:02:00,45.5,31.2,30.26,SSE,168,1.0,2.0,57,0.00,,CLR,0.00,VWS V14.00,2013-04-30 08:02:00,
2013-04-30 04:07:00,45.5,31.6,30.27,SSE,168,1.0,2.0,58,0.00,,CLR,0.00,VWS V14.00,2013-04-30 08:07:00,
2013-04-30 04:12:00,45.3,31.4,30.27,SSE,168,0.0,2.0,58,0.00,,CLR,0.00,VWS V14.00,2013-04-30 08:12:00,
2013-04-30 04:17:00,45.3,31.8,30.27,SSE,168,1.0,3.0,59,0.00,,CLR,0.00,VWS V14.00,2013-04-30 08:17:00,
2013-04-30 04:22:00,45.2,32.2,30.27,SSE,168,0.0,3.0,60,0.00,,CLR,0.00,VWS V14.00,2013-04-30 08:22:00,
2013-04-30 04:27:00,45.0,32.0,30.27,SSE,168,1.0,1.0,60,0.00,,CLR,0.00,VWS V14.00,2013-04-30 08:27:00,
2013-04-30 04:32:00,44.8,30.9,30.27,SSE,168,1.0,2.0,58,0.00,,CLR,0.00,VWS V14.00,2013-04-30 08:32:00,
2013-04-30 04:37:00,44.8,31.4,30.27,SSE,168,1.0,2.0,59,0.00,,CLR,0.00,VWS V14.00,2013-04-30 08:37:00,
2013-04-30 04:42:00,44.8,31.8,30.27,SSE,168,1.0,2.0,60,0.00,,CLR,0.00,VWS V14.00,2013-04-30 08:42:00,
2013-04-30 04:47:00,44.7,31.7,30.27,SSE,168,1.0,2.0,60,0.00,,CLR,0.00,VWS V14.00,2013-04-30 08:47:00,
2013-04-30 04:52:00,44.7,32.1,30.27,SSE,168,2.0,2.0,61,0.00,,CLR,0.00,VWS V14.00,2013-04-30 08:52:00,
2013-04-30 04:57:00,44.7,32.5,30.27,SSE,168,1.0,3.0,62,0.00,,CLR,0.00,VWS V14.00,2013-04-30 08:57:00,
2013-04-30 05:02:00,44.7,32.5,30.27,SSE,168,2.0,3.0,62,0.00,,CLR,0.00,VWS V14.00,2013-04-30 09:02:00,
2013-04-30 05:07:00,44.7,32.9,30.28,SSE,168,1.0,3.0,63,0.00,,CLR,0.00,VWS V14.00,2013-04-30 09:07:00,
2013-04-30 05:12:00,44.5,32.3,30.27,SSE,168,1.0,3.0,62,0.00,,CLR,0.00,VWS V14.00,2013-04-30 09:12:00,
2013-04-30 05:17:00,44.5,32.7,30.28,SSE,168,1.0,3.0,63,0.00,,CLR,0.00,VWS V14.00,2013-04-30 09:17:00,
2013-04-30 05:22:00,44.5,32.7,30.28,SSE,168,1.0,3.0,63,0.00,,CLR,0.00,VWS V14.00,2013-04-30 09:22:00,
2013-04-30 05:27:00,44.4,33.0,30.28,SSE,168,2.0,3.0,64,0.00,,CLR,0.00,VWS V14.00,2013-04-30 09:27:00,
2013-04-30 05:32:00,44.4,33.4,30.28,SSE,168,0.0,2.0,65,0.00,,CLR,0.00,VWS V14.00,2013-04-30 09:32:00,
2013-04-30 05:37:00,44.4,33.0,30.28,SSE,168,0.0,2.0,64,0.00,,CLR,0.00,VWS V14.00,2013-04-30 09:37:00,
2013-04-30 05:42:00,44.4,33.0,30.29,SSE,168,1.0,2.0,64,0.00,,CLR,0.00,VWS V14.00,2013-04-30 09:42:00,
2013-04-30 05:47:00,44.1,34.2,30.29,SSE,168,1.0,2.0,68,0.00,,CLR,0.00,VWS V14.00,2013-04-30 09:47:00,
2013-04-30 05:52:00,43.8,34.7,30.29,SSE,168,0.0,2.0,70,0.00,,CLR,0.00,VWS V14.00,2013-04-30 09:52:00,
2013-04-30 05:57:00,43.7,34.9,30.29,SSE,168,1.0,2.0,71,0.00,,CLR,0.00,VWS V14.00,2013-04-30 09:57:00,
2013-04-30 06:02:00,43.4,34.3,30.29,SSE,168,1.0,2.0,70,0.00,,CLR,0.00,VWS V14.00,2013-04-30 10:02:00,
2013-04-30 06:07:00,43.3,33.8,30.29,SSE,168,0.0,2.0,69,0.00,,CLR,0.00,VWS V14.00,2013-04-30 10:07:00,
2013-04-30 06:12:00,43.3,33.5,30.29,SSE,168,2.0,2.0,68,0.00,,CLR,0.00,VWS V14.00,2013-04-30 10:12:00,
2013-04-30 06:17:00,43.3,33.1,30.30,SSE,168,1.0,2.0,67,0.00,,CLR,0.00,VWS V14.00,2013-04-30 10:17:00,
2013-04-30 06:22:00,43.3,33.1,30.29,SSE,168,1.0,2.0,67,0.00,,CLR,0.00,VWS V14.00,2013-04-30 10:22:00,
2013-04-30 06:27:00,43.3,32.7,30.30,SSE,168,1.0,2.0,66,0.00,,CLR,0.00,VWS V14.00,2013-04-30 10:27:00,
2013-04-30 06:32:00,43.4,32.8,30.30,SSE,168,2.0,2.0,66,0.00,,CLR,0.00,VWS V14.00,2013-04-30 10:32:00,
2013-04-30 06:37:00,43.5,33.3,30.30,SSE,168,1.0,3.0,67,0.00,,CLR,0.00,VWS V14.00,2013-04-30 10:37:00,
2013-04-30 06:42:00,43.7,33.8,30.30,SSE,168,0.0,3.0,68,0.00,,CLR,0.00,VWS V14.00,2013-04-30 10:42:00,
2013-04-30 06:47:00,43.8,34.3,30.30,SSE,168,1.0,3.0,69,0.00,,CLR,0.00,VWS V14.00,2013-04-30 10:47:00,
2013-04-30 06:52:00,44.1,34.6,30.30,SSE,168,1.0,3.0,69,0.00,,CLR,0.00,VWS V14.00,2013-04-30 10:52:00,
2013-04-30 06:57:00,44.4,35.2,30.31,SSE,168,2.0,3.0,70,0.00,,CLR,0.00,VWS V14.00,2013-04-30 10:57:00,
2013-04-30 07:02:00,44.8,35.3,30.31,SSE,168,1.0,4.0,69,0.00,,CLR,0.00,VWS V14.00,2013-04-30 11:02:00,
2013-04-30 07:07:00,45.3,35.0,30.31,SSE,168,1.0,4.0,67,0.00,,CLR,0.00,VWS V14.00,2013-04-30 11:07:00,
2013-04-30 07:12:00,45.8,35.1,30.31,SSE,168,1.0,4.0,66,0.00,,CLR,0.00,VWS V14.00,2013-04-30 11:12:00,
2013-04-30 07:17:00,46.1,34.6,30.31,SSE,168,2.0,4.0,64,0.00,,CLR,0.00,VWS V14.00,2013-04-30 11:17:00,
2013-04-30 07:22:00,46.3,34.0,30.31,SSE,168,0.0,4.0,62,0.00,,CLR,0.00,VWS V14.00,2013-04-30 11:22:00,
2013-04-30 07:27:00,46.6,33.9,30.32,SSE,168,0.0,4.0,61,0.00,,CLR,0.00,VWS V14.00,2013-04-30 11:27:00,
2013-04-30 07:32:00,47.1,34.4,30.32,SSE,168,2.0,2.0,61,0.00,,CLR,0.00,VWS V14.00,2013-04-30 11:32:00,
2013-04-30 07:37:00,47.5,34.3,30.32,SSE,168,1.0,2.0,60,0.00,,CLR,0.00,VWS V14.00,2013-04-30 11:37:00,
2013-04-30 07:42:00,48.1,35.3,30.32,SSE,168,0.0,2.0,61,0.00,,CLR,0.00,VWS V14.00,2013-04-30 11:42:00,
2013-04-30 07:47:00,48.5,35.3,30.32,SSE,168,1.0,2.0,60,0.00,,CLR,0.00,VWS V14.00,2013-04-30 11:47:00,
2013-04-30 07:52:00,48.8,34.7,30.32,SSE,168,2.0,3.0,58,0.00,,CLR,0.00,VWS V14.00,2013-04-30 11:52:00,
2013-04-30 07:57:00,49.1,35.0,30.33,SSE,168,3.0,4.0,58,0.00,,CLR,0.00,VWS V14.00,2013-04-30 11:57:00,
2013-04-30 08:02:00,49.4,34.4,30.33,SSE,168,2.0,4.0,56,0.00,,CLR,0.00,VWS V14.00,2013-04-30 12:02:00,
2013-04-30 08:07:00,50.0,34.9,30.33,SSE,168,2.0,4.0,56,0.00,,CLR,0.00,VWS V14.00,2013-04-30 12:07:00,
2013-04-30 08:12:00,50.5,34.5,30.33,SSE,168,3.0,4.0,54,0.00,,CLR,0.00,VWS V14.00,2013-04-30 12:12:00,
2013-04-30 08:17:00,50.9,33.9,30.33,South,170,2.0,5.0,52,0.00,,CLR,0.00,VWS V14.00,2013-04-30 12:17:00,
2013-04-30 08:22:00,51.5,35.0,30.33,South,170,2.0,5.0,53,0.00,,CLR,0.00,VWS V14.00,2013-04-30 12:22:00,
2013-04-30 08:27:00,52.3,34.7,30.33,South,170,1.0,1.0,51,0.00,,CLR,0.00,VWS V14.00,2013-04-30 12:27:00,
2013-04-30 08:32:00,53.2,35.1,30.33,South,170,1.0,3.0,50,0.00,,CLR,0.00,VWS V14.00,2013-04-30 12:32:00,
2013-04-30 08:37:00,54.2,35.0,30.33,South,170,2.0,4.0,48,0.00,,CLR,0.00,VWS V14.00,2013-04-30 12:37:00,
2013-04-30 08:42:00,55.0,35.2,30.33,South,170,1.0,4.0,47,0.00,,CLR,0.00,VWS V14.00,2013-04-30 12:42:00,
2013-04-30 08:47:00,55.9,34.9,30.33,South,170,2.0,4.0,45,0.00,,CLR,0.00,VWS V14.00,2013-04-30 12:47:00,
2013-04-30 08:52:00,56.3,34.7,30.33,South,170,2.0,4.0,44,0.00,,CLR,0.00,VWS V14.00,2013-04-30 12:52:00,
2013-04-30 08:57:00,56.5,34.3,30.33,South,170,3.0,4.0,43,0.00,,CLR,0.00,VWS V14.00,2013-04-30 12:57:00,
2013-04-30 09:02:00,56.3,32.9,30.33,ESE,117,1.0,6.0,41,0.00,,CLR,0.00,VWS V14.00,2013-04-30 13:02:00,
2013-04-30 09:07:00,56.3,31.7,30.33,ESE,117,3.0,6.0,39,0.00,,CLR,0.00,VWS V14.00,2013-04-30 13:07:00,
2013-04-30 09:12:00,56.5,31.9,30.33,ESE,119,4.0,6.0,39,0.00,,CLR,0.00,VWS V14.00,2013-04-30 13:12:00,
2013-04-30 09:17:00,56.6,31.3,30.33,ESE,119,2.0,6.0,38,0.00,,CLR,0.00,VWS V14.00,2013-04-30 13:17:00,
2013-04-30 09:22:00,56.9,32.2,30.33,ESE,121,2.0,6.0,39,0.00,,CLR,0.00,VWS V14.00,2013-04-30 13:22:00,
2013-04-30 09:27:00,57.4,30.7,30.33,ESE,123,1.0,6.0,36,0.00,,CLR,0.00,VWS V14.00,2013-04-30 13:27:00,
2013-04-30 09:32:00,58.0,30.5,30.33,SSE,154,1.0,5.0,35,0.00,,CLR,0.00,VWS V14.00,2013-04-30 13:32:00,
2013-04-30 09:37:00,58.0,29.8,30.33,SSE,154,3.0,5.0,34,0.00,,CLR,0.00,VWS V14.00,2013-04-30 13:37:00,
2013-04-30 09:42:00,58.0,29.1,30.33,SSE,154,1.0,5.0,33,0.00,,CLR,0.00,VWS V14.00,2013-04-30 13:42:00,
2013-04-30 09:47:00,58.6,29.6,30.33,SSE,154,1.0,5.0,33,0.00,,CLR,0.00,VWS V14.00,2013-04-30 13:47:00,
2013-04-30 09:52:00,58.6,28.1,30.33,SW,222,4.0,8.0,31,0.00,,CLR,0.00,VWS V14.00,2013-04-30 13:52:00,
2013-04-30 09:57:00,58.9,28.3,30.33,South,176,1.0,8.0,31,0.00,,CLR,0.00,VWS V14.00,2013-04-30 13:57:00,
2013-04-30 10:02:00,59.3,29.5,30.33,SSE,158,2.0,5.0,32,0.00,,CLR,0.00,VWS V14.00,2013-04-30 14:02:00,
2013-04-30 10:07:00,60.1,28.6,30.33,SSE,158,2.0,5.0,30,0.00,,CLR,0.00,VWS V14.00,2013-04-30 14:07:00,
2013-04-30 10:12:00,60.6,29.8,30.33,SE,126,2.0,6.0,31,0.00,,CLR,0.00,VWS V14.00,2013-04-30 14:12:00,
2013-04-30 10:17:00,61.7,30.8,30.33,SE,126,3.0,6.0,31,0.00,,CLR,0.00,VWS V14.00,2013-04-30 14:17:00,
2013-04-30 10:22:00,61.8,30.1,30.33,SE,146,1.0,6.0,30,0.00,,CLR,0.00,VWS V14.00,2013-04-30 14:22:00,
2013-04-30 10:27:00,61.5,29.0,30.33,SE,143,3.0,7.0,29,0.00,,CLR,0.00,VWS V14.00,2013-04-30 14:27:00,
2013-04-30 10:32:00,61.2,29.5,30.33,SW,223,3.0,7.0,30,0.00,,CLR,0.00,VWS V14.00,2013-04-30 14:32:00,
2013-04-30 10:37:00,60.9,29.3,30.33,West,266,3.0,7.0,30,0.00,,CLR,0.00,VWS V14.00,2013-04-30 14:37:00,
2013-04-30 10:42:00,61.5,29.0,30.33,West,263,1.0,7.0,29,0.00,,CLR,0.00,VWS V14.00,2013-04-30 14:42:00,
2013-04-30 10:47:00,62.0,30.2,30.33,West,263,5.0,7.0,30,0.00,,CLR,0.00,VWS V14.00,2013-04-30 14:47:00,
2013-04-30 10:52:00,62.1,30.3,30.33,South,185,5.0,7.0,30,0.00,,CLR,0.00,VWS V14.00,2013-04-30 14:52:00,
2013-04-30 10:57:00,61.8,28.4,30.33,ESE,115,3.0,7.0,28,0.00,,CLR,0.00,VWS V14.00,2013-04-30 14:57:00,
2013-04-30 11:02:00,62.0,30.2,30.33,ENE,61,1.0,4.0,30,0.00,,CLR,0.00,VWS V14.00,2013-04-30 15:02:00,
2013-04-30 11:07:00,63.4,31.5,30.33,ENE,61,4.0,4.0,30,0.00,,CLR,0.00,VWS V14.00,2013-04-30 15:07:00,
2013-04-30 11:12:00,63.4,30.6,30.32,SW,225,1.0,6.0,29,0.00,,CLR,0.00,VWS V14.00,2013-04-30 15:12:00,
2013-04-30 11:17:00,63.5,29.8,30.32,SSW,211,3.0,6.0,28,0.00,,CLR,0.00,VWS V14.00,2013-04-30 15:17:00,
2013-04-30 11:22:00,63.4,28.9,30.32,South,176,3.0,7.0,27,0.00,,CLR,0.00,VWS V14.00,2013-04-30 15:22:00,
2013-04-30 11:27:00,63.4,28.9,30.32,South,173,3.0,7.0,27,0.00,,CLR,0.00,VWS V14.00,2013-04-30 15:27:00,
2013-04-30 11:32:00,63.2,28.7,30.32,SSW,194,3.0,6.0,27,0.00,,CLR,0.00,VWS V14.00,2013-04-30 15:32:00,
2013-04-30 11:37:00,63.7,31.7,30.32,ENE,77,2.0,9.0,30,0.00,,CLR,0.00,VWS V14.00,2013-04-30 15:37:00,
2013-04-30 11:42:00,64.2,30.4,30.32,SSW,210,5.0,9.0,28,0.00,,CLR,0.00,VWS V14.00,2013-04-30 15:42:00,
2013-04-30 11:47:00,63.9,30.2,30.32,SSE,151,2.0,9.0,28,0.00,,CLR,0.00,VWS V14.00,2013-04-30 15:47:00,
2013-04-30 11:52:00,64.1,30.4,30.32,East,91,2.0,9.0,28,0.00,,CLR,0.00,VWS V14.00,2013-04-30 15:52:00,
2013-04-30 11:57:00,64.3,31.4,30.32,SE,142,1.0,1.0,29,0.00,,CLR,0.00,VWS V14.00,2013-04-30 15:57:00,
2013-04-30 12:02:00,65.3,31.4,30.32,SE,126,4.0,7.0,28,0.00,,CLR,0.00,VWS V14.00,2013-04-30 16:02:00,
2013-04-30 12:07:00,64.5,29.8,30.31,South,173,4.0,7.0,27,0.00,,CLR,0.00,VWS V14.00,2013-04-30 16:07:00,
2013-04-30 12:12:00,64.4,31.5,30.31,South,181,3.0,7.0,29,0.00,,CLR,0.00,VWS V14.00,2013-04-30 16:12:00,
2013-04-30 12:17:00,64.4,30.6,30.31,East,82,5.0,9.0,28,0.00,,CLR,0.00,VWS V14.00,2013-04-30 16:17:00,
2013-04-30 12:22:00,64.9,30.1,30.31,SE,130,2.0,9.0,27,0.00,,CLR,0.00,VWS V14.00,2013-04-30 16:22:00,
2013-04-30 12:27:00,65.0,30.2,30.31,South,187,2.0,2.0,27,0.00,,CLR,0.00,VWS V14.00,2013-04-30 16:27:00,
2013-04-30 12:32:00,65.5,30.7,30.31,SSE,157,2.0,5.0,27,0.00,,CLR,0.00,VWS V14.00,2013-04-30 16:32:00,
2013-04-30 12:37:00,65.8,30.9,30.30,East,82,2.0,7.0,27,0.00,,CLR,0.00,VWS V14.00,2013-04-30 16:37:00,
2013-04-30 12:42:00,66.3,31.4,30.30,East,82,1.0,7.0,27,0.00,,CLR,0.00,VWS V14.00,2013-04-30 16:42:00,
2013-04-30 12:47:00,66.6,31.6,30.30,West,272,1.0,7.0,27,0.00,,CLR,0.00,VWS V14.00,2013-04-30 16:47:00,
2013-04-30 12:52:00,66.9,31.9,30.30,WSW,240,3.0,7.0,27,0.00,,CLR,0.00,VWS V14.00,2013-04-30 16:52:00,
2013-04-30 12:57:00,67.3,32.2,30.30,ENE,78,2.0,7.0,27,0.00,,CLR,0.00,VWS V14.00,2013-04-30 16:57:00,
2013-04-30 13:02:00,67.1,32.0,30.30,ESE,113,5.0,6.0,27,0.00,,CLR,0.00,VWS V14.00,2013-04-30 17:02:00,
2013-04-30 13:07:00,66.6,31.6,30.30,NE,35,1.0,6.0,27,0.00,,CLR,0.00,VWS V14.00,2013-04-30 17:07:00,
2013-04-30 13:12:00,67.0,32.8,30.30,ENE,77,4.0,6.0,28,0.00,,CLR,0.00,VWS V14.00,2013-04-30 17:12:00,
2013-04-30 13:17:00,67.1,32.0,30.30,NNE,32,0.0,6.0,27,0.00,,CLR,0.00,VWS V14.00,2013-04-30 17:17:00,
2013-04-30 13:22:00,68.6,34.2,30.29,NNE,28,1.0,6.0,28,0.00,,CLR,0.00,VWS V14.00,2013-04-30 17:22:00,
2013-04-30 13:27:00,69.0,33.7,30.30,ENE,62,2.0,6.0,27,0.00,,CLR,0.00,VWS V14.00,2013-04-30 17:27:00,
2013-04-30 13:32:00,67.9,32.7,30.30,ENE,64,1.0,5.0,27,0.00,,CLR,0.00,VWS V14.00,2013-04-30 17:32:00,
2013-04-30 13:37:00,68.1,32.9,30.30,ENE,64,3.0,5.0,27,0.00,,CLR,0.00,VWS V14.00,2013-04-30 17:37:00,
2013-04-30 13:42:00,68.4,33.1,30.30,ENE,71,2.0,7.0,27,0.00,,CLR,0.00,VWS V14.00,2013-04-30 17:42:00,
2013-04-30 13:47:00,68.3,33.1,30.29,South,176,2.0,7.0,27,0.00,,CLR,0.00,VWS V14.00,2013-04-30 17:47:00,
2013-04-30 13:52:00,68.3,33.1,30.30,South,180,1.0,7.0,27,0.00,,CLR,0.00,VWS V14.00,2013-04-30 17:52:00,
2013-04-30 13:57:00,68.4,32.2,30.29,SSE,149,3.0,7.0,26,0.00,,CLR,0.00,VWS V14.00,2013-04-30 17:57:00,
2013-04-30 14:02:00,68.1,32.9,30.30,SSE,161,1.0,4.0,27,0.00,,CLR,0.00,VWS V14.00,2013-04-30 18:02:00,
2013-04-30 14:07:00,68.9,33.6,30.30,NE,55,3.0,5.0,27,0.00,,CLR,0.00,VWS V14.00,2013-04-30 18:07:00,
2013-04-30 14:12:00,69.4,34.0,30.30,SE,146,6.0,6.0,27,0.00,,CLR,0.00,VWS V14.00,2013-04-30 18:12:00,
2013-04-30 14:17:00,69.8,34.3,30.29,SSE,158,1.0,6.0,27,0.00,,CLR,0.00,VWS V14.00,2013-04-30 18:17:00,
2013-04-30 14:22:00,70.1,33.7,30.29,NNE,13,1.0,6.0,26,0.00,,CLR,0.00,VWS V14.00,2013-04-30 18:22:00,
2013-04-30 14:27:00,69.9,33.5,30.29,ENE,64,2.0,6.0,26,0.00,,CLR,0.00,VWS V14.00,2013-04-30 18:27:00,
2013-04-30 14:32:00,69.6,33.2,30.29,ENE,64,1.0,4.0,26,0.00,,CLR,0.00,VWS V14.00,2013-04-30 18:32:00,
2013-04-30 14:37:00,69.4,32.1,30.29,SSW,198,1.0,6.0,25,0.00,,CLR,0.00,VWS V14.00,2013-04-30 18:37:00,
2013-04-30 14:42:00,69.1,32.8,30.29,SSW,206,5.0,9.0,26,0.00,,CLR,0.00,VWS V14.00,2013-04-30 18:42:00,
2013-04-30 14:47:00,68.5,33.2,30.29,SE,139,1.0,9.0,27,0.00,,CLR,0.00,VWS V14.00,2013-04-30 18:47:00,
2013-04-30 14:52:00,68.6,32.4,30.29,SE,125,2.0,9.0,26,0.00,,CLR,0.00,VWS V14.00,2013-04-30 18:52:00,
2013-04-30 14:57:00,68.8,33.5,30.29,NNE,19,2.0,9.0,27,0.00,,CLR,0.00,VWS V14.00,2013-04-30 18:57:00,
2013-04-30 15:02:00,69.6,34.2,30.28,East,93,5.0,7.0,27,0.00,,CLR,0.00,VWS V14.00,2013-04-30 19:02:00,
2013-04-30 15:07:00,69.4,34.0,30.29,ENE,68,4.0,7.0,27,0.00,,CLR,0.00,VWS V14.00,2013-04-30 19:07:00,
2013-04-30 15:12:00,69.4,34.0,30.29,ENE,65,2.0,7.0,27,0.00,,CLR,0.00,VWS V14.00,2013-04-30 19:12:00,
2013-04-30 15:17:00,68.6,33.3,30.29,NE,52,3.0,10.0,27,0.00,,CLR,0.00,VWS V14.00,2013-04-30 19:17:00,
2013-04-30 15:22:00,68.1,32.9,30.29,East,101,6.0,10.0,27,0.00,,CLR,0.00,VWS V14.00,2013-04-30 19:22:00,
2013-04-30 15:27:00,67.8,32.6,30.29,East,100,3.0,10.0,27,0.00,,CLR,0.00,VWS V14.00,2013-04-30 19:27:00,
2013-04-30 15:32:00,68.4,33.1,30.28,NE,51,2.0,8.0,27,0.00,,CLR,0.00,VWS V14.00,2013-04-30 19:32:00,
2013-04-30 15:37:00,68.5,33.2,30.29,East,96,3.0,8.0,27,0.00,,CLR,0.00,VWS V14.00,2013-04-30 19:37:00,
2013-04-30 15:42:00,68.4,33.1,30.29,NE,35,5.0,8.0,27,0.00,,CLR,0.00,VWS V14.00,2013-04-30 19:42:00,
2013-04-30 15:47:00,68.0,32.8,30.29,NE,51,6.0,8.0,27,0.00,,CLR,0.00,VWS V14.00,2013-04-30 19:47:00,
2013-04-30 15:52:00,67.9,32.7,30.28,SSE,167,1.0,8.0,27,0.00,,CLR,0.00,VWS V14.00,2013-04-30 19:52:00,
2013-04-30 15:57:00,68.0,31.9,30.29,NE,48,6.0,8.0,26,0.00,,CLR,0.00,VWS V14.00,2013-04-30 19:57:00,
2013-04-30 16:02:00,67.5,31.4,30.28,ENE,60,2.0,6.0,26,0.00,,CLR,0.00,VWS V14.00,2013-04-30 20:02:00,
2013-04-30 16:07:00,67.1,32.0,30.29,NE,56,4.0,6.0,27,0.00,,CLR,0.00,VWS V14.00,2013-04-30 20:07:00,
2013-04-30 16:12:00,66.8,31.8,30.29,East,100,2.0,7.0,27,0.00,,CLR,0.00,VWS V14.00,2013-04-30 20:12:00,
2013-04-30 16:17:00,66.9,31.9,30.29,ENE,61,2.0,7.0,27,0.00,,CLR,0.00,VWS V14.00,2013-04-30 20:17:00,
2013-04-30 16:22:00,67.3,32.2,30.29,NE,46,1.0,9.0,27,0.00,,CLR,0.00,VWS V14.00,2013-04-30 20:22:00,
2013-04-30 16:27:00,67.6,31.5,30.29,South,175,2.0,9.0,26,0.00,,CLR,0.00,VWS V14.00,2013-04-30 20:27:00,
2013-04-30 16:32:00,67.3,31.3,30.29,East,98,1.0,11.0,26,0.00,,CLR,0.00,VWS V14.00,2013-04-30 20:32:00,
2013-04-30 16:37:00,67.5,32.4,30.29,NE,41,4.0,11.0,27,0.00,,CLR,0.00,VWS V14.00,2013-04-30 20:37:00,
2013-04-30 16:42:00,67.5,31.4,30.29,ENE,61,3.0,11.0,26,0.00,,CLR,0.00,VWS V14.00,2013-04-30 20:42:00,
2013-04-30 16:47:00,66.8,31.8,30.29,ESE,105,1.0,11.0,27,0.00,,CLR,0.00,VWS V14.00,2013-04-30 20:47:00,
2013-04-30 16:52:00,66.6,30.7,30.30,ESE,111,3.0,11.0,26,0.00,,CLR,0.00,VWS V14.00,2013-04-30 20:52:00,
2013-04-30 16:57:00,66.0,30.2,30.29,East,92,5.0,11.0,26,0.00,,CLR,0.00,VWS V14.00,2013-04-30 20:57:00,
2013-04-30 17:02:00,65.5,29.7,30.29,East,99,2.0,6.0,26,0.00,,CLR,0.00,VWS V14.00,2013-04-30 21:02:00,
2013-04-30 17:07:00,65.3,29.6,30.30,East,93,3.0,6.0,26,0.00,,CLR,0.00,VWS V14.00,2013-04-30 21:07:00,
2013-04-30 17:12:00,65.2,29.5,30.29,ENE,78,2.0,6.0,26,0.00,,CLR,0.00,VWS V14.00,2013-04-30 21:12:00,
2013-04-30 17:17:00,65.0,29.3,30.29,East,89,2.0,7.0,26,0.00,,CLR,0.00,VWS V14.00,2013-04-30 21:17:00,
2013-04-30 17:22:00,64.9,29.2,30.30,East,88,5.0,7.0,26,0.00,,CLR,0.00,VWS V14.00,2013-04-30 21:22:00,
2013-04-30 17:27:00,65.0,30.2,30.30,East,82,3.0,7.0,27,0.00,,CLR,0.00,VWS V14.00,2013-04-30 21:27:00,
2013-04-30 17:32:00,65.3,30.5,30.30,ENE,68,2.0,5.0,27,0.00,,CLR,0.00,VWS V14.00,2013-04-30 21:32:00,
2013-04-30 17:37:00,65.3,29.6,30.30,ENE,59,4.0,7.0,26,0.00,,CLR,0.00,VWS V14.00,2013-04-30 21:37:00,
2013-04-30 17:42:00,64.9,29.2,30.30,SE,143,3.0,8.0,26,0.00,,CLR,0.00,VWS V14.00,2013-04-30 21:42:00,
2013-04-30 17:47:00,64.4,28.8,30.30,ENE,70,4.0,9.0,26,0.00,,CLR,0.00,VWS V14.00,2013-04-30 21:47:00,
2013-04-30 17:52:00,64.2,29.5,30.30,East,85,2.0,9.0,27,0.00,,CLR,0.00,VWS V14.00,2013-04-30 21:52:00,
2013-04-30 17:57:00,64.2,29.5,30.30,NE,48,2.0,9.0,27,0.00,,CLR,0.00,VWS V14.00,2013-04-30 21:57:00,
2013-04-30 18:02:00,64.1,29.5,30.30,NE,53,3.0,5.0,27,0.00,,CLR,0.00,VWS V14.00,2013-04-30 22:02:00,
2013-04-30 18:07:00,63.5,29.0,30.30,East,93,2.0,6.0,27,0.00,,CLR,0.00,VWS V14.00,2013-04-30 22:07:00,
2013-04-30 18:12:00,63.2,28.7,30.31,ENE,57,3.0,8.0,27,0.00,,CLR,0.00,VWS V14.00,2013-04-30 22:12:00,
2013-04-30 18:17:00,62.9,28.4,30.30,ENE,65,1.0,8.0,27,0.00,,CLR,0.00,VWS V14.00,2013-04-30 22:17:00,
2013-04-30 18:22:00,62.8,28.4,30.31,ENE,66,1.0,8.0,27,0.00,,CLR,0.00,VWS V14.00,2013-04-30 22:22:00,
2013-04-30 18:27:00,62.4,28.0,30.31,ENE,67,2.0,8.0,27,0.00,,CLR,0.00,VWS V14.00,2013-04-30 22:27:00,
2013-04-30 18:32:00,62.3,28.8,30.31,ENE,66,2.0,5.0,28,0.00,,CLR,0.00,VWS V14.00,2013-04-30 22:32:00,
2013-04-30 18:37:00,62.0,27.7,30.31,ENE,67,2.0,5.0,27,0.00,,CLR,0.00,VWS V14.00,2013-04-30 22:37:00,
2013-04-30 18:42:00,61.8,30.1,30.32,ENE,67,0.0,5.0,30,0.00,,CLR,0.00,VWS V14.00,2013-04-30 22:42:00,
2013-04-30 18:47:00,61.4,28.0,30.31,ENE,63,1.0,7.0,28,0.00,,CLR,0.00,VWS V14.00,2013-04-30 22:47:00,
2013-04-30 18:52:00,61.0,26.8,30.31,ENE,63,2.0,7.0,27,0.00,,CLR,0.00,VWS V14.00,2013-04-30 22:52:00,
2013-04-30 18:57:00,60.7,27.4,30.32,ENE,63,2.0,7.0,28,0.00,,CLR,0.00,VWS V14.00,2013-04-30 22:57:00,
2013-04-30 19:02:00,60.4,28.0,30.31,ENE,60,2.0,6.0,29,0.00,,CLR,0.00,VWS V14.00,2013-04-30 23:02:00,
2013-04-30 19:07:00,60.1,26.9,30.31,ENE,61,1.0,6.0,28,0.00,,CLR,0.00,VWS V14.00,2013-04-30 23:07:00,
2013-04-30 19:12:00,59.9,27.6,30.31,ENE,61,1.0,6.0,29,0.00,,CLR,0.00,VWS V14.00,2013-04-30 23:12:00,
2013-04-30 19:17:00,59.6,27.3,30.32,ENE,61,1.0,6.0,29,0.00,,CLR,0.00,VWS V14.00,2013-04-30 23:17:00,
2013-04-30 19:22:00,59.3,27.1,30.32,ENE,61,1.0,6.0,29,0.00,,CLR,0.00,VWS V14.00,2013-04-30 23:22:00,
2013-04-30 19:27:00,59.0,26.8,30.32,ENE,60,1.0,6.0,29,0.00,,CLR,0.00,VWS V14.00,2013-04-30 23:27:00,
2013-04-30 19:32:00,58.7,28.2,30.32,ENE,60,1.0,3.0,31,0.00,,CLR,0.00,VWS V14.00,2013-04-30 23:32:00,
2013-04-30 19:37:00,58.4,27.9,30.32,ENE,61,1.0,3.0,31,0.00,,CLR,0.00,VWS V14.00,2013-04-30 23:37:00,
2013-04-30 19:42:00,58.1,28.4,30.32,ENE,60,1.0,3.0,32,0.00,,CLR,0.00,VWS V14.00,2013-04-30 23:42:00,
2013-04-30 19:47:00,57.8,28.2,30.33,ENE,61,2.0,3.0,32,0.00,,CLR,0.00,VWS V14.00,2013-04-30 23:47:00,
2013-04-30 19:52:00,57.5,28.6,30.33,ENE,60,1.0,3.0,33,0.00,,CLR,0.00,VWS V14.00,2013-04-30 23:52:00,
2013-04-30 19:57:00,56.9,28.8,30.33,ENE,60,1.0,3.0,34,0.00,,CLR,0.00,VWS V14.00,2013-04-30 23:57:00,
2013-04-30 20:02:00,56.6,28.6,30.33,ENE,60,1.0,3.0,34,0.00,,CLR,0.00,VWS V14.00,2013-05-01 00:02:00,
2013-04-30 20:07:00,56.3,29.7,30.33,ENE,61,1.0,3.0,36,0.00,,CLR,0.00,VWS V14.00,2013-05-01 00:07:00,
2013-04-30 20:12:00,56.0,30.8,30.33,ENE,61,0.0,3.0,38,0.00,,CLR,0.00,VWS V14.00,2013-05-01 00:12:00,
2013-04-30 20:17:00,55.6,29.8,30.33,ENE,60,3.0,4.0,37,0.00,,CLR,0.00,VWS V14.00,2013-05-01 00:17:00,
2013-04-30 20:22:00,55.0,28.6,30.34,ENE,60,1.0,4.0,36,0.00,,CLR,0.00,VWS V14.00,2013-05-01 00:22:00,
2013-04-30 20:27:00,54.5,30.1,30.33,ENE,61,1.0,4.0,39,0.00,,CLR,0.00,VWS V14.00,2013-05-01 00:27:00,
2013-04-30 20:32:00,54.1,31.5,30.34,ENE,60,0.0,3.0,42,0.00,,CLR,0.00,VWS V14.00,2013-05-01 00:32:00,
2013-04-30 20:37:00,53.8,28.2,30.34,ENE,60,1.0,3.0,37,0.00,,CLR,0.00,VWS V14.00,2013-05-01 00:37:00,
2013-04-30 20:42:00,54.1,29.7,30.34,ENE,61,1.0,4.0,39,0.00,,CLR,0.00,VWS V14.00,2013-05-01 00:42:00,
2013-04-30 20:47:00,54.4,30.0,30.34,ENE,60,2.0,4.0,39,0.00,,CLR,0.00,VWS V14.00,2013-05-01 00:47:00,
2013-04-30 20:52:00,54.4,31.2,30.34,ENE,61,1.0,4.0,41,0.00,,CLR,0.00,VWS V14.00,2013-05-01 00:52:00,
2013-04-30 20:57:00,54.4,31.2,30.34,ENE,60,2.0,4.0,41,0.00,,CLR,0.00,VWS V14.00,2013-05-01 00:57:00,
2013-04-30 21:02:00,54.2,31.6,30.34,ENE,60,2.0,4.0,42,0.00,,FEW150,0.00,VWS V14.00,2013-05-01 01:02:00,
2013-04-30 21:07:00,54.1,31.5,30.34,ENE,60,1.0,4.0,42,0.00,,FEW150,0.00,VWS V14.00,2013-05-01 01:07:00,
2013-04-30 21:12:00,54.1,32.1,30.34,ENE,61,0.0,4.0,43,0.00,,FEW150,0.00,VWS V14.00,2013-05-01 01:12:00,
2013-04-30 21:17:00,53.8,31.9,30.35,ENE,61,1.0,4.0,43,0.00,,FEW150,0.00,VWS V14.00,2013-05-01 01:17:00,
2013-04-30 21:22:00,53.5,31.6,30.35,ENE,61,0.0,4.0,43,0.00,,FEW150,0.00,VWS V14.00,2013-05-01 01:22:00,
2013-04-30 21:27:00,53.2,31.9,30.35,ENE,61,0.0,4.0,44,0.00,,FEW150,0.00,VWS V14.00,2013-05-01 01:27:00,
2013-04-30 21:32:00,52.8,31.5,30.34,ENE,61,2.0,3.0,44,0.00,,FEW150,0.00,VWS V14.00,2013-05-01 01:32:00,
2013-04-30 21:37:00,52.7,31.4,30.34,ENE,61,2.0,3.0,44,0.00,,FEW150,0.00,VWS V14.00,2013-05-01 01:37:00,
2013-04-30 21:42:00,52.6,30.8,30.34,ENE,61,1.0,3.0,43,0.00,,FEW150,0.00,VWS V14.00,2013-05-01 01:42:00,
2013-04-30 21:47:00,52.6,30.8,30.34,ENE,61,1.0,3.0,43,0.00,,FEW150,0.00,VWS V14.00,2013-05-01 01:47:00,
2013-04-30 21:52:00,52.5,30.7,30.34,ENE,61,1.0,4.0,43,0.00,,FEW150,0.00,VWS V14.00,2013-05-01 01:52:00,
2013-04-30 21:57:00,52.6,30.8,30.35,ENE,62,0.0,4.0,43,0.00,,FEW150,0.00,VWS V14.00,2013-05-01 01:57:00,
2013-04-30 22:02:00,52.5,30.7,30.35,ENE,62,1.0,4.0,43,0.00,,CLR,0.00,VWS V14.00,2013-05-01 02:02:00,
2013-04-30 22:07:00,52.2,31.0,30.35,ENE,62,1.0,4.0,44,0.00,,CLR,0.00,VWS V14.00,2013-05-01 02:07:00,
2013-04-30 22:12:00,52.0,30.8,30.35,ENE,62,1.0,4.0,44,0.00,,CLR,0.00,VWS V14.00,2013-05-01 02:12:00,
2013-04-30 22:17:00,51.8,31.1,30.35,ENE,62,0.0,4.0,45,0.00,,CLR,0.00,VWS V14.00,2013-05-01 02:17:00,
2013-04-30 22:22:00,51.5,32.0,30.35,ENE,62,1.0,4.0,47,0.00,,CLR,0.00,VWS V14.00,2013-05-01 02:22:00,
2013-04-30 22:27:00,51.0,31.0,30.35,ENE,62,1.0,4.0,46,0.00,,CLR,0.00,VWS V14.00,2013-05-01 02:27:00,
2013-04-30 22:32:00,50.7,31.7,30.35,ENE,62,1.0,2.0,48,0.00,,CLR,0.00,VWS V14.00,2013-05-01 02:32:00,
2013-04-30 22:37:00,50.3,30.9,30.35,ENE,62,1.0,3.0,47,0.00,,CLR,0.00,VWS V14.00,2013-05-01 02:37:00,
2013-04-30 22:42:00,50.0,30.6,30.35,ENE,62,1.0,3.0,47,0.00,,CLR,0.00,VWS V14.00,2013-05-01 02:42:00,
2013-04-30 22:47:00,49.6,30.7,30.35,ENE,62,1.0,3.0,48,0.00,,CLR,0.00,VWS V14.00,2013-05-01 02:47:00,
2013-04-30 22:52:00,49.4,31.6,30.36,ENE,62,1.0,3.0,50,0.00,,CLR,0.00,VWS V14.00,2013-05-01 02:52:00,
2013-04-30 22:57:00,49.0,31.2,30.36,ENE,62,2.0,3.0,50,0.00,,CLR,0.00,VWS V14.00,2013-05-01 02:57:00,
2013-04-30 23:02:00,48.7,30.9,30.35,ENE,62,2.0,3.0,50,0.00,,CLR,0.00,VWS V14.00,2013-05-01 03:02:00,
2013-04-30 23:07:00,48.7,30.9,30.36,ENE,62,2.0,3.0,50,0.00,,CLR,0.00,VWS V14.00,2013-05-01 03:07:00,
2013-04-30 23:12:00,48.7,30.9,30.36,ENE,62,2.0,3.0,50,0.00,,CLR,0.00,VWS V14.00,2013-05-01 03:12:00,
2013-04-30 23:17:00,48.5,30.7,30.36,ENE,62,1.0,3.0,50,0.00,,CLR,0.00,VWS V14.00,2013-05-01 03:17:00,
2013-04-30 23:22:00,48.5,31.2,30.36,ENE,62,2.0,3.0,51,0.00,,CLR,0.00,VWS V14.00,2013-05-01 03:22:00,
2013-04-30 23:27:00,48.3,31.0,30.36,ENE,62,2.0,3.0,51,0.00,,CLR,0.00,VWS V14.00,2013-05-01 03:27:00,
2013-04-30 23:32:00,48.1,30.8,30.36,ENE,62,1.0,3.0,51,0.00,,CLR,0.00,VWS V14.00,2013-05-01 03:32:00,
2013-04-30 23:37:00,47.8,31.0,30.36,ENE,62,1.0,3.0,52,0.00,,CLR,0.00,VWS V14.00,2013-05-01 03:37:00,
2013-04-30 23:42:00,47.5,30.8,30.36,ENE,62,2.0,3.0,52,0.00,,CLR,0.00,VWS V14.00,2013-05-01 03:42:00,
2013-04-30 23:47:00,47.4,31.6,30.37,ENE,62,1.0,3.0,54,0.00,,CLR,0.00,VWS V14.00,2013-05-01 03:47:00,
2013-04-30 23:52:00,47.2,31.0,30.37,ENE,62,2.0,3.0,53,0.00,,CLR,0.00,VWS V14.00,2013-05-01 03:52:00,
2013-04-30 23:57:00,47.1,30.9,30.37,ENE,62,1.0,3.0,53,0.00,,CLR,0.00,VWS V14.00,2013-05-01 03:57:00,